Погода в Мотыгино

Россия / Красноярский край     58°10′53″N   94°42′17″E
темп.,
°C
ветер,
м/с
пор.,
м/с
влажн.,
%
обл.,
%
осадки,
мм/ч
давл.,
гПа
погр.,
м
18 августа, чт
чт1801:00+9юз2699100 0.1 1008302
04:00+9юз2699100 0.3 1007367
07:00+9юз3799100 4.8 1007355
10:00+9зюз3899100 6.8 1007533
13:00+10зюз4899100 12.3 1008560
16:00+11з4897100 0.1 1008606
19:00+11зюз4897100 0.1 1008469
22:00+10зюз3999100 1.3 1008496
19 августа, пт
пт1901:00+10зюз3899100 3.6 1007386
04:00+9зюз379999 0.9 1007441
07:00+9зюз2799100 0.9 1008414
10:00+10зюз2598100 0.0 1008371
13:00+11зюз3594100 0.1 1008433
16:00+14зюз3474100 0.0 1008808
19:00+13зюз2489100 0.6 1008104
22:00+11зюз229690 0.9 100936
20 августа, сб
сб2001:00+9ссв119792 0.9 101014
04:00+8св229812 0.0 101123
07:00+9ссв129690 0.0 101289
10:00+11в0091100 0.0 1012165
13:00+14св1172100 0.0 1012559
16:00+15зюз1266100 0.1 1012749
19:00+13юз1185100 0.2 101214
22:00+10юз119490 0.0 101211
21 августа, вс
вс2101:00+8ююз119677 0.0 101213
04:00+8ююз119898 0.0 101124
07:00+10ююз2498100 0.2 1011161
10:00+14зюз3678100 0.1 1010657
13:00+13з3787100 0.8 1010454
16:00+11зсз3995100 1.2 1010583
19:00+10зюз3998100 2.0 1010576
22:00+9зсз369791 0.6 1011315
22 августа, пн
пн2201:00+8зсз119797 0.6 101220
04:00+8сз1297100 0.1 101372
07:00+8с3895100 0.2 1015450
10:00+8с269284 0.2 1017423
13:00+11ссз2364100 0.3 10181054
16:00+12ссз245198 0.0 10191168
19:00+10зсз1166100 0.0 102032
22:00+9юз2267100 0.0 102030